Time,TemperatureF,DewpointF,PressureIn,WindDirection,WindDirectionDegrees,WindSpeedMPH,WindSpeedGustMPH,Humidity,HourlyPrecipIn,Conditions,Clouds,dailyrainin,SoftwareType,DateUTC
2013-04-16 00:02:00,64.3,58.3,29.82,SSE,161,0.0,0.0,81,0.00,,CLR,0.00,VWS V14.01,2013-04-16 05:02:00,
2013-04-16 00:07:00,64.2,58.3,29.82,SSE,161,0.0,2.0,81,0.00,,CLR,0.00,VWS V14.01,2013-04-16 05:07:00,
2013-04-16 00:12:00,64.2,58.3,29.83,SSE,161,0.0,0.0,81,0.00,,CLR,0.00,VWS V14.01,2013-04-16 05:12:00,
2013-04-16 00:17:00,64.2,58.3,29.83,SSE,161,0.0,0.0,81,0.00,,CLR,0.00,VWS V14.01,2013-04-16 05:17:00,
2013-04-16 00:22:00,64.3,58.3,29.83,SSE,161,0.0,1.0,81,0.00,,CLR,0.00,VWS V14.01,2013-04-16 05:22:00,
2013-04-16 00:27:00,64.5,58.5,29.83,SSE,159,0.0,1.0,81,0.00,,CLR,0.00,VWS V14.01,2013-04-16 05:27:00,
2013-04-16 00:32:00,65.0,59.0,29.82,SSE,161,0.0,0.0,81,0.00,,CLR,0.00,VWS V14.01,2013-04-16 05:32:00,
2013-04-16 00:37:00,65.3,59.0,29.83,SSE,161,0.0,1.0,80,0.00,,CLR,0.00,VWS V14.01,2013-04-16 05:37:00,
2013-04-16 00:42:00,65.7,59.4,29.83,SSE,161,0.0,1.0,80,0.00,,CLR,0.00,VWS V14.01,2013-04-16 05:42:00,
2013-04-16 00:47:00,66.1,59.8,29.83,SSW,202,1.0,6.0,80,0.00,,CLR,0.00,VWS V14.01,2013-04-16 05:47:00,
2013-04-16 00:52:00,66.6,59.9,29.83,South,180,0.0,0.0,79,0.00,,CLR,0.00,VWS V14.01,2013-04-16 05:52:00,
2013-04-16 00:57:00,66.8,59.7,29.83,South,180,3.0,3.0,78,0.00,,CLR,0.00,VWS V14.01,2013-04-16 05:57:00,
2013-04-16 01:02:00,67.2,60.1,29.83,South,180,0.0,1.0,78,0.00,,CLR,0.00,VWS V14.01,2013-04-16 06:02:00,
2013-04-16 01:07:00,67.4,60.0,29.84,South,180,0.0,4.0,77,0.00,,CLR,0.00,VWS V14.01,2013-04-16 06:07:00,
2013-04-16 01:12:00,67.5,60.0,29.83,South,180,0.0,1.0,77,0.00,,CLR,0.00,VWS V14.01,2013-04-16 06:12:00,
2013-04-16 01:17:00,67.4,60.0,29.83,South,180,0.0,3.0,77,0.00,,CLR,0.00,VWS V14.01,2013-04-16 06:17:00,
2013-04-16 01:22:00,67.3,59.8,29.84,SSW,203,1.0,1.0,77,0.00,,CLR,0.00,VWS V14.01,2013-04-16 06:22:00,
2013-04-16 01:28:00,67.2,60.1,29.84,SSW,203,1.0,2.0,78,0.00,,CLR,0.00,VWS V14.01,2013-04-16 06:28:00,
2013-04-16 01:33:00,67.0,59.9,29.85,SSW,203,1.0,2.0,78,0.00,,CLR,0.00,VWS V14.01,2013-04-16 06:33:00,
2013-04-16 01:38:00,66.3,58.9,29.86,WNW,301,3.0,6.0,77,0.00,,CLR,0.00,VWS V14.01,2013-04-16 06:38:00,
2013-04-16 01:43:00,64.1,56.4,29.87,NNW,335,2.0,4.0,76,0.00,,CLR,0.00,VWS V14.01,2013-04-16 06:43:00,
2013-04-16 01:48:00,61.7,54.8,29.88,WNW,289,4.0,6.0,78,0.00,,CLR,0.00,VWS V14.01,2013-04-16 06:48:00,
2013-04-16 01:53:00,60.2,54.0,29.88,NNW,336,3.0,3.0,80,0.00,,SCT045,0.00,VWS V14.01,2013-04-16 06:53:00,
2013-04-16 01:58:00,59.1,53.3,29.89,NNW,328,1.0,4.0,81,0.00,,SCT045,0.00,VWS V14.01,2013-04-16 06:58:00,
2013-04-16 02:03:00,58.3,52.5,29.89,North,355,8.0,8.0,81,0.00,,SCT045,0.00,VWS V14.01,2013-04-16 07:03:00,
2013-04-16 02:08:00,57.6,52.2,29.89,NW,316,1.0,8.0,82,0.00,,SCT045,0.00,VWS V14.01,2013-04-16 07:08:00,
2013-04-16 02:13:00,57.1,51.7,29.89,NNW,333,0.0,3.0,82,0.00,,SCT045,0.00,VWS V14.01,2013-04-16 07:13:00,
2013-04-16 02:18:00,56.8,51.4,29.89,NNW,344,4.0,5.0,82,0.00,,SCT045,0.00,VWS V14.01,2013-04-16 07:18:00,
2013-04-16 02:23:00,56.6,51.2,29.89,WNW,298,1.0,5.0,82,0.00,,SCT045,0.00,VWS V14.01,2013-04-16 07:23:00,
2013-04-16 02:28:00,56.5,51.1,29.90,WNW,299,0.0,5.0,82,0.00,,SCT045,0.00,VWS V14.01,2013-04-16 07:28:00,
2013-04-16 02:33:00,56.3,50.9,29.90,NW,317,0.0,3.0,82,0.00,,SCT045,0.00,VWS V14.01,2013-04-16 07:33:00,
2013-04-16 02:38:00,56.2,50.8,29.91,WNW,300,0.0,4.0,82,0.00,,SCT045,0.00,VWS V14.01,2013-04-16 07:38:00,
2013-04-16 02:43:00,56.2,50.8,29.91,North,360,2.0,2.0,82,0.00,,OVC045,0.00,VWS V14.01,2013-04-16 07:43:00,
2013-04-16 02:48:00,56.0,50.6,29.91,NW,325,0.0,5.0,82,0.00,,OVC045,0.00,VWS V14.01,2013-04-16 07:48:00,
2013-04-16 02:53:00,56.0,50.6,29.90,NW,326,0.0,1.0,82,0.00,,,0.00,VWS V14.01,2013-04-16 07:53:00,
2013-04-16 02:58:00,56.0,50.6,29.90,NNW,327,1.0,3.0,82,0.00,,,0.00,VWS V14.01,2013-04-16 07:58:00,
2013-04-16 03:03:00,55.8,50.4,29.91,NNW,343,1.0,4.0,82,0.00,,,0.00,VWS V14.01,2013-04-16 08:03:00,
2013-04-16 03:08:00,55.7,50.3,29.92,North,349,3.0,6.0,82,0.00,,,0.00,VWS V14.01,2013-04-16 08:08:00,
2013-04-16 03:13:00,55.6,50.2,29.92,North,360,2.0,4.0,82,0.00,,,0.00,VWS V14.01,2013-04-16 08:13:00,
2013-04-16 03:18:00,55.3,49.9,29.92,North,360,6.0,8.0,82,0.00,,,0.00,VWS V14.01,2013-04-16 08:18:00,
2013-04-16 03:23:00,54.6,49.2,29.92,North,5,5.0,5.0,82,0.00,,,0.00,VWS V14.01,2013-04-16 08:23:00,
2013-04-16 03:28:00,54.2,48.8,29.92,North,360,4.0,7.0,82,0.00,,,0.00,VWS V14.01,2013-04-16 08:28:00,
2013-04-16 03:33:00,54.0,48.6,29.93,North,360,1.0,4.0,82,0.00,,,0.00,VWS V14.01,2013-04-16 08:33:00,
2013-04-16 03:38:00,53.7,48.3,29.93,North,360,5.0,8.0,82,0.00,,,0.00,VWS V14.01,2013-04-16 08:38:00,
2013-04-16 03:43:00,53.5,48.2,29.93,North,360,2.0,3.0,82,0.00,,,0.00,VWS V14.01,2013-04-16 08:43:00,
2013-04-16 03:48:00,53.3,48.0,29.94,North,355,4.0,6.0,82,0.00,,,0.00,VWS V14.01,2013-04-16 08:48:00,
2013-04-16 03:53:00,53.2,47.9,29.94,North,5,2.0,4.0,82,0.00,,OVC007,0.00,VWS V14.01,2013-04-16 08:53:00,
2013-04-16 03:58:00,53.1,47.8,29.94,NE,42,0.0,4.0,82,0.00,,OVC007,0.00,VWS V14.01,2013-04-16 08:58:00,
2013-04-16 04:03:00,53.1,47.8,29.93,North,360,7.0,7.0,82,0.00,,OVC007,0.00,VWS V14.01,2013-04-16 09:03:00,
2013-04-16 04:08:00,52.9,47.6,29.95,North,350,0.0,7.0,82,0.00,,OVC007,0.00,VWS V14.01,2013-04-16 09:08:00,
2013-04-16 04:13:00,52.8,47.5,29.95,North,355,2.0,6.0,82,0.00,,OVC007,0.00,VWS V14.01,2013-04-16 09:13:00,
2013-04-16 04:18:00,52.7,47.4,29.95,North,355,0.0,6.0,82,0.00,,OVC007,0.00,VWS V14.01,2013-04-16 09:18:00,
2013-04-16 04:23:00,52.6,47.3,29.96,NE,46,2.0,5.0,82,0.00,,OVC007,0.00,VWS V14.01,2013-04-16 09:23:00,
2013-04-16 04:28:00,52.5,47.2,29.96,North,360,2.0,6.0,82,0.00,,OVC007,0.00,VWS V14.01,2013-04-16 09:28:00,
2013-04-16 04:33:00,52.5,47.2,29.96,NNE,21,1.0,1.0,82,0.00,,OVC009,0.00,VWS V14.01,2013-04-16 09:33:00,
2013-04-16 04:38:00,52.4,47.1,29.97,ENE,68,0.0,5.0,82,0.00,,OVC009,0.00,VWS V14.01,2013-04-16 09:38:00,
2013-04-16 04:43:00,52.4,47.1,29.98,North,5,0.0,1.0,82,0.00,,OVC020,0.00,VWS V14.01,2013-04-16 09:43:00,
2013-04-16 04:48:00,52.4,47.1,29.99,NNE,21,3.0,4.0,82,0.00,,OVC020,0.00,VWS V14.01,2013-04-16 09:48:00,
2013-04-16 04:53:00,52.4,47.1,29.99,NNE,26,1.0,4.0,82,0.00,,OVC020,0.00,VWS V14.01,2013-04-16 09:53:00,
2013-04-16 04:58:00,52.4,47.1,30.01,WNW,302,12.0,16.0,82,0.00,,OVC020,0.00,VWS V14.01,2013-04-16 09:58:00,
2013-04-16 05:03:00,52.3,47.0,30.07,NW,309,9.0,11.0,82,0.00,,OVC020,0.00,VWS V14.01,2013-04-16 10:03:00,
2013-04-16 05:08:00,52.1,46.8,30.06,NNE,32,2.0,11.0,82,0.00,,OVC020,0.00,VWS V14.01,2013-04-16 10:08:00,
2013-04-16 05:13:00,51.7,46.4,30.01,NE,46,3.0,4.0,82,0.00,,OVC020,0.00,VWS V14.01,2013-04-16 10:13:00,
2013-04-16 05:18:00,51.3,46.0,29.99,East,79,0.0,7.0,82,0.00,,OVC020,0.00,VWS V14.01,2013-04-16 10:18:00,
2013-04-16 05:23:00,51.1,46.1,29.99,NE,51,0.0,2.0,83,0.00,,OVC020,0.00,VWS V14.01,2013-04-16 10:23:00,
2013-04-16 05:28:00,50.9,45.6,29.99,ENE,76,3.0,6.0,82,0.00,,OVC020,0.00,VWS V14.01,2013-04-16 10:28:00,
2013-04-16 05:33:00,50.9,45.6,29.98,East,97,4.0,7.0,82,0.00,,-RA,0.00,VWS V14.01,2013-04-16 10:33:00,
2013-04-16 05:38:00,50.9,45.6,29.98,East,87,0.0,7.0,82,0.00,,-RA,0.00,VWS V14.01,2013-04-16 10:38:00,
2013-04-16 05:43:00,50.9,45.6,29.99,ENE,68,0.0,4.0,82,0.00,,-RA,0.00,VWS V14.01,2013-04-16 10:43:00,
2013-04-16 05:48:00,50.9,45.6,29.99,ESE,107,0.0,7.0,82,0.00,,-RA,0.00,VWS V14.01,2013-04-16 10:48:00,
2013-04-16 05:53:00,50.9,45.6,29.99,ENE,71,4.0,4.0,82,0.00,,-RA,0.00,VWS V14.01,2013-04-16 10:53:00,
2013-04-16 05:58:00,50.8,45.5,30.00,ENE,73,0.0,6.0,82,0.01,,-RA,0.01,VWS V14.01,2013-04-16 10:58:00,
2013-04-16 06:03:00,50.9,45.6,30.00,ENE,76,0.0,4.0,82,0.01,,-RA,0.01,VWS V14.01,2013-04-16 11:03:00,
2013-04-16 06:08:00,50.9,45.6,30.01,ENE,76,0.0,4.0,82,0.01,,-RA,0.01,VWS V14.01,2013-04-16 11:08:00,
2013-04-16 06:13:00,51.1,46.1,30.01,ENE,78,1.0,1.0,83,0.01,,-RA,0.01,VWS V14.01,2013-04-16 11:13:00,
2013-04-16 06:18:00,51.1,46.1,30.01,ENE,77,0.0,3.0,83,0.01,,-RA,0.01,VWS V14.01,2013-04-16 11:18:00,
2013-04-16 06:23:00,51.2,46.2,30.00,ESE,117,6.0,6.0,83,0.01,,-RA,0.01,VWS V14.01,2013-04-16 11:23:00,
2013-04-16 06:28:00,51.1,46.1,29.99,East,92,0.0,7.0,83,0.01,,-RA,0.01,VWS V14.01,2013-04-16 11:28:00,
2013-04-16 06:33:00,51.0,45.7,29.97,ENE,60,6.0,6.0,82,0.02,,OVC065,0.02,VWS V14.01,2013-04-16 11:33:00,
2013-04-16 06:38:00,51.0,45.7,29.98,East,88,0.0,6.0,82,0.02,,OVC065,0.02,VWS V14.01,2013-04-16 11:38:00,
2013-04-16 06:43:00,50.9,45.6,29.99,ENE,77,0.0,4.0,82,0.02,,OVC065,0.02,VWS V14.01,2013-04-16 11:43:00,
2013-04-16 06:48:00,51.1,46.1,29.99,ENE,78,1.0,4.0,83,0.02,,OVC065,0.02,VWS V14.01,2013-04-16 11:48:00,
2013-04-16 06:53:00,51.1,46.1,30.00,East,80,0.0,2.0,83,0.02,,-RA,0.02,VWS V14.01,2013-04-16 11:53:00,
2013-04-16 06:58:00,51.1,46.1,30.01,ENE,74,0.0,4.0,83,0.02,,-RA,0.02,VWS V14.01,2013-04-16 11:58:00,
2013-04-16 07:03:00,51.2,46.2,30.01,ENE,74,0.0,1.0,83,0.01,,-RA,0.02,VWS V14.01,2013-04-16 12:03:00,
2013-04-16 07:08:00,51.2,46.2,30.01,ENE,73,0.0,3.0,83,0.01,,-RA,0.02,VWS V14.01,2013-04-16 12:08:00,
2013-04-16 07:13:00,51.2,46.2,30.02,NE,42,0.0,0.0,83,0.01,,-RA,0.02,VWS V14.01,2013-04-16 12:13:00,
2013-04-16 07:18:00,51.2,46.2,30.03,NE,41,0.0,3.0,83,0.01,,-RA,0.02,VWS V14.01,2013-04-16 12:18:00,
2013-04-16 07:23:00,51.2,46.2,30.03,North,9,1.0,3.0,83,0.01,,-RA,0.02,VWS V14.01,2013-04-16 12:23:00,
2013-04-16 07:28:00,51.2,46.2,30.04,North,360,0.0,4.0,83,0.01,,-RA,0.02,VWS V14.01,2013-04-16 12:28:00,
2013-04-16 07:33:00,51.2,46.2,30.05,North,355,0.0,1.0,83,0.00,,OVC070,0.02,VWS V14.01,2013-04-16 12:33:00,
2013-04-16 07:38:00,51.3,46.3,30.05,North,5,0.0,6.0,83,0.00,,OVC070,0.02,VWS V14.01,2013-04-16 12:38:00,
2013-04-16 07:43:00,51.2,46.2,30.05,NE,36,0.0,1.0,83,0.00,,OVC070,0.02,VWS V14.01,2013-04-16 12:43:00,
2013-04-16 07:48:00,51.2,46.2,30.03,NE,34,0.0,3.0,83,0.00,,OVC070,0.02,VWS V14.01,2013-04-16 12:48:00,
2013-04-16 07:53:00,51.2,46.2,30.05,NNE,28,1.0,3.0,83,0.00,,OVC055,0.02,VWS V14.01,2013-04-16 12:53:00,
2013-04-16 07:58:00,51.1,46.1,30.04,NE,42,0.0,4.0,83,0.00,,OVC055,0.02,VWS V14.01,2013-04-16 12:58:00,
2013-04-16 08:03:00,50.9,45.9,30.04,NE,56,0.0,2.0,83,0.01,,OVC055,0.03,VWS V14.01,2013-04-16 13:03:00,
2013-04-16 08:08:00,50.9,45.9,30.05,NE,54,0.0,3.0,83,0.01,,OVC055,0.03,VWS V14.01,2013-04-16 13:08:00,
2013-04-16 08:13:00,51.0,46.0,30.05,NE,52,0.0,4.0,83,0.01,,OVC055,0.03,VWS V14.01,2013-04-16 13:13:00,
2013-04-16 08:18:00,50.9,45.9,30.05,ENE,62,0.0,5.0,83,0.01,,OVC055,0.03,VWS V14.01,2013-04-16 13:18:00,
2013-04-16 08:23:00,51.0,46.0,30.04,ENE,63,0.0,2.0,83,0.01,,OVC055,0.03,VWS V14.01,2013-04-16 13:23:00,
2013-04-16 08:28:00,51.0,46.0,30.05,NE,54,2.0,4.0,83,0.01,,OVC055,0.03,VWS V14.01,2013-04-16 13:28:00,
2013-04-16 08:33:00,50.8,45.8,30.05,NE,40,1.0,2.0,83,0.01,,OVC006,0.03,VWS V14.01,2013-04-16 13:33:00,
2013-04-16 08:38:00,50.8,45.8,30.04,NE,56,3.0,4.0,83,0.01,,OVC006,0.03,VWS V14.01,2013-04-16 13:38:00,
2013-04-16 08:43:00,50.8,45.8,30.04,North,355,1.0,4.0,83,0.01,,OVC006,0.03,VWS V14.01,2013-04-16 13:43:00,
2013-04-16 08:48:00,50.8,45.8,30.04,NNE,25,0.0,6.0,83,0.01,,OVC006,0.03,VWS V14.01,2013-04-16 13:48:00,
2013-04-16 08:53:00,50.9,45.9,30.04,NNE,20,0.0,3.0,83,0.01,,OVC006,0.03,VWS V14.01,2013-04-16 13:53:00,
2013-04-16 08:58:00,51.0,46.0,30.04,NE,41,1.0,4.0,83,0.01,,OVC006,0.03,VWS V14.01,2013-04-16 13:58:00,
2013-04-16 09:03:00,51.1,46.1,30.04,NNW,345,1.0,3.0,83,0.00,,OVC006,0.03,VWS V14.01,2013-04-16 14:03:00,
2013-04-16 09:08:00,51.0,46.0,30.05,North,355,4.0,5.0,83,0.00,,OVC006,0.03,VWS V14.01,2013-04-16 14:08:00,
2013-04-16 09:13:00,51.0,46.0,30.05,North,360,0.0,0.0,83,0.00,,OVC006,0.03,VWS V14.01,2013-04-16 14:13:00,
2013-04-16 09:18:00,51.2,46.2,30.04,NE,51,4.0,4.0,83,0.00,,OVC006,0.03,VWS V14.01,2013-04-16 14:18:00,
2013-04-16 09:23:00,51.1,46.1,30.04,ENE,63,3.0,11.0,83,0.00,,OVC006,0.03,VWS V14.01,2013-04-16 14:23:00,
2013-04-16 09:28:00,51.0,46.0,30.05,NNE,30,5.0,11.0,83,0.00,,OVC006,0.03,VWS V14.01,2013-04-16 14:28:00,
2013-04-16 09:33:00,51.1,46.1,30.04,NE,52,0.0,3.0,83,0.00,,OVC006,0.03,VWS V14.01,2013-04-16 14:33:00,
2013-04-16 09:38:00,51.2,46.2,30.05,NW,319,3.0,10.0,83,0.00,,OVC006,0.03,VWS V14.01,2013-04-16 14:38:00,
2013-04-16 09:43:00,51.4,46.4,30.05,ENE,75,1.0,4.0,83,0.00,,OVC006,0.03,VWS V14.01,2013-04-16 14:43:00,
2013-04-16 09:48:00,51.4,46.4,30.05,ENE,58,2.0,10.0,83,0.00,,OVC006,0.03,VWS V14.01,2013-04-16 14:48:00,
2013-04-16 09:53:00,51.4,46.4,30.05,NE,50,0.0,6.0,83,0.00,,-RA,0.03,VWS V14.01,2013-04-16 14:53:00,
2013-04-16 09:59:00,51.3,46.3,30.06,ENE,70,3.0,6.0,83,0.00,,-RA,0.03,VWS V14.01,2013-04-16 14:59:00,
2013-04-16 10:04:00,51.4,46.4,30.05,ENE,57,6.0,6.0,83,0.00,,-RA,0.03,VWS V14.01,2013-04-16 15:04:00,
2013-04-16 10:09:00,51.4,46.4,30.06,ENE,63,0.0,6.0,83,0.00,,-RA,0.03,VWS V14.01,2013-04-16 15:09:00,
2013-04-16 10:14:00,51.6,46.6,30.06,ENE,63,1.0,1.0,83,0.00,,-RA,0.03,VWS V14.01,2013-04-16 15:14:00,
2013-04-16 10:19:00,51.7,46.7,30.06,North,360,1.0,3.0,83,0.00,,-RA,0.03,VWS V14.01,2013-04-16 15:19:00,
2013-04-16 10:24:00,51.6,46.6,30.06,ENE,62,0.0,1.0,83,0.00,,-RA,0.03,VWS V14.01,2013-04-16 15:24:00,
2013-04-16 10:29:00,51.7,46.7,30.06,NNW,336,0.0,2.0,83,0.00,,-RA,0.03,VWS V14.01,2013-04-16 15:29:00,
2013-04-16 10:34:00,51.7,46.7,30.06,NNW,335,0.0,2.0,83,0.01,,,0.04,VWS V14.01,2013-04-16 15:34:00,
2013-04-16 10:39:00,51.6,46.6,30.06,NNW,339,0.0,3.0,83,0.01,,,0.04,VWS V14.01,2013-04-16 15:39:00,
2013-04-16 10:44:00,51.7,46.7,30.07,ENE,60,0.0,1.0,83,0.01,,,0.04,VWS V14.01,2013-04-16 15:44:00,
2013-04-16 10:49:00,51.7,46.7,30.06,NE,48,0.0,4.0,83,0.01,,,0.04,VWS V14.01,2013-04-16 15:49:00,
2013-04-16 10:54:00,51.7,46.7,30.06,NE,49,0.0,2.0,83,0.01,,,0.04,VWS V14.01,2013-04-16 15:54:00,
2013-04-16 10:59:00,51.8,46.8,30.06,NE,49,1.0,2.0,83,0.01,,,0.04,VWS V14.01,2013-04-16 15:59:00,
2013-04-16 11:04:00,51.8,46.8,30.06,North,360,3.0,3.0,83,0.01,,,0.04,VWS V14.01,2013-04-16 16:04:00,
2013-04-16 11:09:00,51.7,46.7,30.05,ENE,57,0.0,8.0,83,0.01,,,0.04,VWS V14.01,2013-04-16 16:09:00,
2013-04-16 11:14:00,51.7,46.7,30.05,East,80,0.0,6.0,83,0.01,,,0.04,VWS V14.01,2013-04-16 16:14:00,
2013-04-16 11:19:00,51.7,46.7,30.05,ENE,62,0.0,6.0,83,0.01,,,0.04,VWS V14.01,2013-04-16 16:19:00,
2013-04-16 11:24:00,51.8,46.8,30.06,ENE,57,0.0,4.0,83,0.01,,,0.04,VWS V14.01,2013-04-16 16:24:00,
2013-04-16 11:29:00,51.9,46.9,30.06,ENE,74,0.0,4.0,83,0.01,,,0.04,VWS V14.01,2013-04-16 16:29:00,
2013-04-16 11:34:00,52.0,47.0,30.06,NE,48,0.0,1.0,83,0.00,,OVC006,0.04,VWS V14.01,2013-04-16 16:34:00,
2013-04-16 11:39:00,52.1,47.1,30.06,NE,51,3.0,5.0,83,0.00,,OVC006,0.04,VWS V14.01,2013-04-16 16:39:00,
2013-04-16 11:44:00,52.1,47.1,30.06,ENE,66,0.0,6.0,83,0.00,,OVC006,0.04,VWS V14.01,2013-04-16 16:44:00,
2013-04-16 11:49:00,52.1,47.1,30.07,North,355,2.0,6.0,83,0.00,,OVC006,0.04,VWS V14.01,2013-04-16 16:49:00,
2013-04-16 11:54:00,52.0,47.0,30.07,North,355,0.0,4.0,83,0.00,,,0.04,VWS V14.01,2013-04-16 16:54:00,
2013-04-16 11:59:00,51.9,46.9,30.07,North,355,0.0,4.0,83,0.00,,,0.04,VWS V14.01,2013-04-16 16:59:00,
2013-04-16 12:04:00,51.7,46.7,30.07,North,355,0.0,3.0,83,0.00,,,0.04,VWS V14.01,2013-04-16 17:04:00,
2013-04-16 12:09:00,51.6,46.6,30.08,North,351,3.0,6.0,83,0.00,,,0.04,VWS V14.01,2013-04-16 17:09:00,
2013-04-16 12:14:00,51.5,46.5,30.08,NNE,19,1.0,2.0,83,0.00,,,0.04,VWS V14.01,2013-04-16 17:14:00,
2013-04-16 12:19:00,51.4,46.4,30.08,North,5,0.0,4.0,83,0.00,,,0.04,VWS V14.01,2013-04-16 17:19:00,
2013-04-16 12:24:00,51.4,46.4,30.08,North,360,2.0,7.0,83,0.00,,,0.04,VWS V14.01,2013-04-16 17:24:00,
2013-04-16 12:29:00,51.3,46.3,30.08,North,355,2.0,7.0,83,0.00,,,0.04,VWS V14.01,2013-04-16 17:29:00,
2013-04-16 12:34:00,51.3,46.3,30.08,North,349,3.0,5.0,83,0.00,,,0.04,VWS V14.01,2013-04-16 17:34:00,
2013-04-16 12:39:00,51.3,46.3,30.08,NNW,346,0.0,5.0,83,0.00,,,0.04,VWS V14.01,2013-04-16 17:39:00,
2013-04-16 12:44:00,51.2,46.2,30.08,North,355,6.0,7.0,83,0.00,,,0.04,VWS V14.01,2013-04-16 17:44:00,
2013-04-16 12:49:00,50.8,45.8,30.08,North,360,2.0,7.0,83,0.00,,,0.04,VWS V14.01,2013-04-16 17:49:00,
2013-04-16 12:54:00,50.7,45.7,30.07,North,360,2.0,3.0,83,0.00,,,0.04,VWS V14.01,2013-04-16 17:54:00,
2013-04-16 12:59:00,50.6,45.6,30.07,ENE,58,1.0,8.0,83,0.00,,,0.04,VWS V14.01,2013-04-16 17:59:00,
2013-04-16 13:04:00,50.5,45.5,30.08,North,5,3.0,5.0,83,0.00,,,0.04,VWS V14.01,2013-04-16 18:04:00,
2013-04-16 13:09:00,50.5,45.5,30.08,NE,44,0.0,6.0,83,0.00,,,0.04,VWS V14.01,2013-04-16 18:09:00,
2013-04-16 13:14:00,50.6,45.6,30.08,North,5,8.0,8.0,83,0.00,,,0.04,VWS V14.01,2013-04-16 18:14:00,
2013-04-16 13:19:00,50.5,45.5,30.07,North,5,2.0,8.0,83,0.00,,,0.04,VWS V14.01,2013-04-16 18:19:00,
2013-04-16 13:24:00,50.3,45.3,30.07,ENE,63,0.0,5.0,83,0.00,,,0.04,VWS V14.01,2013-04-16 18:24:00,
2013-04-16 13:29:00,50.5,45.5,30.07,NE,55,2.0,5.0,83,0.00,,,0.04,VWS V14.01,2013-04-16 18:29:00,
2013-04-16 13:34:00,50.4,45.4,30.07,NE,47,2.0,5.0,83,0.00,,,0.04,VWS V14.01,2013-04-16 18:34:00,
2013-04-16 13:39:00,50.4,45.4,30.07,ENE,70,3.0,5.0,83,0.00,,,0.04,VWS V14.01,2013-04-16 18:39:00,
2013-04-16 13:44:00,50.4,45.4,30.07,ENE,69,6.0,8.0,83,0.00,,,0.04,VWS V14.01,2013-04-16 18:44:00,
2013-04-16 13:49:00,50.4,45.4,30.07,NE,55,3.0,11.0,83,0.00,,,0.04,VWS V14.01,2013-04-16 18:49:00,
2013-04-16 13:54:00,50.6,45.6,30.07,NE,42,3.0,4.0,83,0.00,,,0.04,VWS V14.01,2013-04-16 18:54:00,
2013-04-16 13:59:00,50.7,45.7,30.07,NE,43,1.0,8.0,83,0.00,,,0.04,VWS V14.01,2013-04-16 18:59:00,
2013-04-16 14:04:00,50.7,45.7,30.07,ENE,58,0.0,6.0,83,0.00,,,0.04,VWS V14.01,2013-04-16 19:04:00,
2013-04-16 14:09:00,51.0,46.0,30.07,ENE,57,2.0,7.0,83,0.00,,,0.04,VWS V14.01,2013-04-16 19:09:00,
2013-04-16 14:14:00,50.9,45.9,30.07,NNE,21,3.0,8.0,83,0.00,,,0.04,VWS V14.01,2013-04-16 19:14:00,
2013-04-16 14:19:00,51.1,46.1,30.07,North,355,0.0,9.0,83,0.00,,,0.04,VWS V14.01,2013-04-16 19:19:00,
2013-04-16 14:24:00,51.4,46.4,30.08,NNE,28,0.0,4.0,83,0.00,,,0.04,VWS V14.01,2013-04-16 19:24:00,
2013-04-16 14:29:00,51.5,46.5,30.08,NE,53,0.0,4.0,83,0.00,,,0.04,VWS V14.01,2013-04-16 19:29:00,
2013-04-16 14:34:00,51.5,46.5,30.08,NNE,19,1.0,6.0,83,0.00,,,0.04,VWS V14.01,2013-04-16 19:34:00,
2013-04-16 14:39:00,51.3,46.3,30.08,North,351,1.0,6.0,83,0.00,,,0.04,VWS V14.01,2013-04-16 19:39:00,
2013-04-16 14:44:00,51.3,46.3,30.08,NNE,20,3.0,9.0,83,0.01,,,0.05,VWS V14.01,2013-04-16 19:44:00,
2013-04-16 14:49:00,51.3,46.3,30.07,North,10,2.0,9.0,83,0.01,,,0.05,VWS V14.01,2013-04-16 19:49:00,
2013-04-16 14:54:00,51.4,46.4,30.07,NNE,16,3.0,6.0,83,0.01,,OVC006,0.05,VWS V14.01,2013-04-16 19:54:00,
2013-04-16 14:59:00,51.3,46.3,30.07,NE,45,0.0,9.0,83,0.01,,OVC006,0.05,VWS V14.01,2013-04-16 19:59:00,
2013-04-16 15:04:00,51.5,46.5,30.07,NNE,31,0.0,2.0,83,0.01,,OVC006,0.05,VWS V14.01,2013-04-16 20:04:00,
2013-04-16 15:09:00,51.7,46.7,30.07,NE,45,0.0,3.0,83,0.01,,OVC006,0.05,VWS V14.01,2013-04-16 20:09:00,
2013-04-16 15:14:00,51.7,46.7,30.06,NNE,21,2.0,7.0,83,0.01,,OVC006,0.05,VWS V14.01,2013-04-16 20:14:00,
2013-04-16 15:19:00,51.9,46.9,30.06,NNE,28,5.0,7.0,83,0.01,,OVC006,0.05,VWS V14.01,2013-04-16 20:19:00,
2013-04-16 15:24:00,51.9,46.9,30.06,NNE,17,1.0,8.0,83,0.01,,OVC006,0.05,VWS V14.01,2013-04-16 20:24:00,
2013-04-16 15:29:00,52.1,47.1,30.06,NE,38,8.0,8.0,83,0.01,,OVC006,0.05,VWS V14.01,2013-04-16 20:29:00,
2013-04-16 15:34:00,52.0,47.0,30.05,ENE,67,1.0,11.0,83,0.01,,OVC006,0.05,VWS V14.01,2013-04-16 20:34:00,
2013-04-16 15:39:00,52.1,47.1,30.06,NE,34,2.0,11.0,83,0.01,,OVC006,0.05,VWS V14.01,2013-04-16 20:39:00,
2013-04-16 15:44:00,52.2,47.2,30.05,NE,46,0.0,10.0,83,0.01,,OVC006,0.05,VWS V14.01,2013-04-16 20:44:00,
2013-04-16 15:49:00,52.3,47.3,30.06,East,89,2.0,10.0,83,0.01,,OVC006,0.05,VWS V14.01,2013-04-16 20:49:00,
2013-04-16 15:54:00,52.4,47.4,30.05,NE,55,2.0,6.0,83,0.00,,OVC006,0.05,VWS V14.01,2013-04-16 20:54:00,
2013-04-16 15:59:00,52.6,47.6,30.05,East,96,4.0,6.0,83,0.00,,OVC006,0.05,VWS V14.01,2013-04-16 20:59:00,
2013-04-16 16:04:00,53.0,48.0,30.05,East,82,0.0,3.0,83,0.00,,OVC006,0.05,VWS V14.01,2013-04-16 21:04:00,
2013-04-16 16:09:00,53.2,48.2,30.06,East,87,0.0,6.0,83,0.00,,OVC006,0.05,VWS V14.01,2013-04-16 21:09:00,
2013-04-16 16:14:00,53.4,48.4,30.07,ENE,74,0.0,5.0,83,0.00,,OVC006,0.05,VWS V14.01,2013-04-16 21:14:00,
2013-04-16 16:19:00,53.5,48.5,30.07,ENE,78,2.0,5.0,83,0.00,,OVC006,0.05,VWS V14.01,2013-04-16 21:19:00,
2013-04-16 16:24:00,53.7,48.7,30.07,ENE,59,2.0,4.0,83,0.00,,OVC006,0.05,VWS V14.01,2013-04-16 21:24:00,
2013-04-16 16:29:00,54.0,49.0,30.07,North,355,3.0,5.0,83,0.00,,OVC006,0.05,VWS V14.01,2013-04-16 21:29:00,
2013-04-16 16:34:00,54.2,49.2,30.07,North,355,0.0,0.0,83,0.00,,OVC012,0.05,VWS V14.01,2013-04-16 21:34:00,
2013-04-16 16:39:00,54.3,49.3,30.07,North,355,0.0,5.0,83,0.00,,OVC012,0.05,VWS V14.01,2013-04-16 21:39:00,
2013-04-16 16:44:00,54.4,49.3,30.07,North,360,0.0,3.0,83,0.00,,OVC012,0.05,VWS V14.01,2013-04-16 21:44:00,
2013-04-16 16:49:00,54.4,49.3,30.07,NNW,343,1.0,5.0,83,0.00,,OVC012,0.05,VWS V14.01,2013-04-16 21:49:00,
2013-04-16 16:54:00,54.5,49.1,30.07,NNW,343,0.0,1.0,82,0.00,,OVC012,0.05,VWS V14.01,2013-04-16 21:54:00,
2013-04-16 16:59:00,54.6,49.2,30.07,NNW,348,1.0,3.0,82,0.00,,OVC012,0.05,VWS V14.01,2013-04-16 21:59:00,
2013-04-16 17:04:00,54.5,49.1,30.07,North,9,4.0,4.0,82,0.00,,OVC012,0.05,VWS V14.01,2013-04-16 22:04:00,
2013-04-16 17:09:00,54.2,49.2,30.06,NNE,14,2.0,4.0,83,0.00,,OVC012,0.05,VWS V14.01,2013-04-16 22:09:00,
2013-04-16 17:14:00,54.0,49.0,30.06,North,355,1.0,4.0,83,0.00,,OVC012,0.05,VWS V14.01,2013-04-16 22:14:00,
2013-04-16 17:19:00,53.9,48.5,30.06,North,9,2.0,7.0,82,0.00,,OVC012,0.05,VWS V14.01,2013-04-16 22:19:00,
2013-04-16 17:24:00,53.7,48.3,30.07,North,360,3.0,6.0,82,0.00,,OVC012,0.05,VWS V14.01,2013-04-16 22:24:00,
2013-04-16 17:29:00,53.6,48.6,30.07,NNE,17,0.0,6.0,83,0.00,,OVC012,0.05,VWS V14.01,2013-04-16 22:29:00,
2013-04-16 17:34:00,53.7,48.7,30.07,NNE,26,0.0,3.0,83,0.00,,OVC008,0.05,VWS V14.01,2013-04-16 22:34:00,
2013-04-16 17:39:00,53.7,48.3,30.07,NE,55,0.0,3.0,82,0.00,,OVC008,0.05,VWS V14.01,2013-04-16 22:39:00,
2013-04-16 17:44:00,53.7,48.3,30.06,NE,40,0.0,6.0,82,0.00,,OVC008,0.05,VWS V14.01,2013-04-16 22:44:00,
2013-04-16 17:49:00,53.5,48.5,30.07,NE,49,0.0,7.0,83,0.00,,OVC008,0.05,VWS V14.01,2013-04-16 22:49:00,
2013-04-16 17:54:00,53.5,48.5,30.06,North,355,3.0,5.0,83,0.00,,OVC006,0.05,VWS V14.01,2013-04-16 22:54:00,
2013-04-16 17:59:00,53.5,48.5,30.07,ENE,59,0.0,5.0,83,0.00,,OVC006,0.05,VWS V14.01,2013-04-16 22:59:00,
2013-04-16 18:04:00,53.4,48.4,30.07,North,5,0.0,4.0,83,0.00,,OVC006,0.05,VWS V14.01,2013-04-16 23:04:00,
2013-04-16 18:09:00,53.2,47.9,30.07,NNE,17,1.0,8.0,82,0.00,,OVC006,0.05,VWS V14.01,2013-04-16 23:09:00,
2013-04-16 18:14:00,53.0,48.0,30.08,North,360,1.0,5.0,83,0.00,,OVC006,0.05,VWS V14.01,2013-04-16 23:14:00,
2013-04-16 18:19:00,52.8,47.8,30.07,North,11,3.0,5.0,83,0.00,,OVC006,0.05,VWS V14.01,2013-04-16 23:19:00,
2013-04-16 18:24:00,52.4,47.4,30.08,NNE,19,3.0,4.0,83,0.00,,OVC006,0.05,VWS V14.01,2013-04-16 23:24:00,
2013-04-16 18:29:00,52.0,47.0,30.07,NNE,30,2.0,8.0,83,0.00,,OVC006,0.05,VWS V14.01,2013-04-16 23:29:00,
2013-04-16 18:34:00,51.8,46.8,30.07,North,355,3.0,6.0,83,0.00,,OVC006,0.05,VWS V14.01,2013-04-16 23:34:00,
2013-04-16 18:39:00,51.7,46.7,30.08,NE,38,3.0,6.0,83,0.00,,OVC006,0.05,VWS V14.01,2013-04-16 23:39:00,
2013-04-16 18:44:00,51.7,46.7,30.07,NNW,340,5.0,5.0,83,0.00,,OVC006,0.05,VWS V14.01,2013-04-16 23:44:00,
2013-04-16 18:49:00,51.6,46.6,30.07,ENE,63,3.0,6.0,83,0.00,,OVC006,0.05,VWS V14.01,2013-04-16 23:49:00,
2013-04-16 18:54:00,51.4,46.4,30.07,NE,37,0.0,7.0,83,0.00,,OVC006,0.05,VWS V14.01,2013-04-16 23:54:00,
2013-04-16 18:59:00,51.4,46.4,30.08,North,5,0.0,7.0,83,0.00,,OVC006,0.05,VWS V14.01,2013-04-16 23:59:00,
2013-04-16 19:04:00,51.3,46.3,30.09,East,84,0.0,3.0,83,0.00,,OVC006,0.05,VWS V14.01,2013-04-17 00:04:00,
2013-04-16 19:10:00,51.3,46.3,30.09,ENE,73,1.0,3.0,83,0.00,,OVC006,0.05,VWS V14.01,2013-04-17 00:10:00,
2013-04-16 19:15:00,51.3,46.3,30.09,NE,44,0.0,0.0,83,0.00,,OVC008,0.05,VWS V14.01,2013-04-17 00:15:00,
2013-04-16 19:20:00,51.2,46.2,30.09,North,5,0.0,3.0,83,0.00,,OVC008,0.05,VWS V14.01,2013-04-17 00:20:00,
2013-04-16 19:25:00,51.1,46.1,30.09,North,351,0.0,5.0,83,0.00,,OVC008,0.05,VWS V14.01,2013-04-17 00:25:00,
2013-04-16 19:30:00,51.1,46.1,30.09,NE,51,0.0,7.0,83,0.00,,OVC008,0.05,VWS V14.01,2013-04-17 00:30:00,
2013-04-16 19:35:00,51.1,46.1,30.09,North,355,3.0,4.0,83,0.00,,OVC008,0.05,VWS V14.01,2013-04-17 00:35:00,
2013-04-16 19:40:00,51.1,46.1,30.09,NNE,30,1.0,4.0,83,0.00,,OVC008,0.05,VWS V14.01,2013-04-17 00:40:00,
2013-04-16 19:45:00,51.1,46.1,30.09,NE,46,1.0,3.0,83,0.00,,OVC008,0.05,VWS V14.01,2013-04-17 00:45:00,
2013-04-16 19:50:00,51.1,46.1,30.09,NE,55,0.0,6.0,83,0.00,,OVC008,0.05,VWS V14.01,2013-04-17 00:50:00,
2013-04-16 19:55:00,51.2,46.2,30.09,NE,50,0.0,0.0,83,0.00,,OVC008,0.05,VWS V14.01,2013-04-17 00:55:00,
2013-04-16 20:00:00,51.2,46.2,30.09,ENE,61,0.0,4.0,83,0.00,,OVC008,0.05,VWS V14.01,2013-04-17 01:00:00,
2013-04-16 20:05:00,51.2,46.2,30.10,North,360,0.0,3.0,83,0.00,,OVC008,0.05,VWS V14.01,2013-04-17 01:05:00,
2013-04-16 20:10:00,51.2,46.2,30.10,NNE,23,0.0,4.0,83,0.00,,OVC008,0.05,VWS V14.01,2013-04-17 01:10:00,
2013-04-16 20:15:00,51.1,46.1,30.09,NE,51,6.0,7.0,83,0.00,,OVC008,0.05,VWS V14.01,2013-04-17 01:15:00,
2013-04-16 20:20:00,51.0,46.0,30.10,NNE,13,0.0,9.0,83,0.00,,OVC008,0.05,VWS V14.01,2013-04-17 01:20:00,
2013-04-16 20:25:00,51.0,46.0,30.11,NE,54,0.0,2.0,83,0.00,,OVC008,0.05,VWS V14.01,2013-04-17 01:25:00,
2013-04-16 20:30:00,51.1,46.1,30.10,NNE,32,2.0,8.0,83,0.00,,OVC008,0.05,VWS V14.01,2013-04-17 01:30:00,
2013-04-16 20:35:00,51.1,46.1,30.11,NNE,15,0.0,2.0,83,0.00,,OVC008,0.05,VWS V14.01,2013-04-17 01:35:00,
2013-04-16 20:40:00,51.2,46.2,30.12,NE,34,0.0,8.0,83,0.00,,OVC008,0.05,VWS V14.01,2013-04-17 01:40:00,
2013-04-16 20:45:00,51.1,46.1,30.12,NNE,13,2.0,3.0,83,0.00,,OVC008,0.05,VWS V14.01,2013-04-17 01:45:00,
2013-04-16 20:50:00,51.1,46.1,30.12,North,355,0.0,3.0,83,0.00,,OVC008,0.05,VWS V14.01,2013-04-17 01:50:00,
2013-04-16 20:55:00,51.0,46.0,30.12,North,355,0.0,3.0,83,0.00,,,0.05,VWS V14.01,2013-04-17 01:55:00,
2013-04-16 21:00:00,51.0,46.0,30.11,NE,55,0.0,7.0,83,0.00,,,0.05,VWS V14.01,2013-04-17 02:00:00,
2013-04-16 21:05:00,50.9,45.9,30.11,NE,43,4.0,4.0,83,0.00,,,0.05,VWS V14.01,2013-04-17 02:05:00,
2013-04-16 21:10:00,50.8,45.8,30.11,ENE,61,5.0,6.0,83,0.00,,,0.05,VWS V14.01,2013-04-17 02:10:00,
2013-04-16 21:15:00,50.8,45.8,30.11,NE,55,2.0,6.0,83,0.00,,,0.05,VWS V14.01,2013-04-17 02:15:00,
2013-04-16 21:20:00,50.7,45.7,30.11,NE,49,4.0,6.0,83,0.00,,,0.05,VWS V14.01,2013-04-17 02:20:00,
2013-04-16 21:25:00,50.7,45.7,30.10,NE,45,0.0,5.0,83,0.00,,,0.05,VWS V14.01,2013-04-17 02:25:00,
2013-04-16 21:30:00,50.7,45.7,30.10,NNE,30,1.0,5.0,83,0.00,,,0.05,VWS V14.01,2013-04-17 02:30:00,
2013-04-16 21:35:00,50.7,45.7,30.11,NE,55,0.0,3.0,83,0.00,,,0.05,VWS V14.01,2013-04-17 02:35:00,
2013-04-16 21:40:00,50.8,45.8,30.10,NNW,346,2.0,5.0,83,0.00,,,0.05,VWS V14.01,2013-04-17 02:40:00,
2013-04-16 21:45:00,50.7,45.7,30.11,NE,54,1.0,7.0,83,0.00,,,0.05,VWS V14.01,2013-04-17 02:45:00,
2013-04-16 21:50:00,50.8,45.8,30.11,ENE,65,2.0,7.0,83,0.00,,,0.05,VWS V14.01,2013-04-17 02:50:00,
2013-04-16 21:55:00,50.8,45.8,30.11,NNW,342,1.0,7.0,83,0.00,,,0.05,VWS V14.01,2013-04-17 02:55:00,
2013-04-16 22:00:00,50.8,45.8,30.11,NNW,327,0.0,7.0,83,0.00,,,0.05,VWS V14.01,2013-04-17 03:00:00,
2013-04-16 22:05:00,50.8,45.8,30.13,NNW,327,0.0,1.0,83,0.00,,,0.05,VWS V14.01,2013-04-17 03:05:00,
2013-04-16 22:10:00,50.9,45.9,30.12,ENE,59,4.0,5.0,83,0.00,,,0.05,VWS V14.01,2013-04-17 03:10:00,
2013-04-16 22:15:00,50.9,45.9,30.12,NNW,339,0.0,5.0,83,0.01,,,0.06,VWS V14.01,2013-04-17 03:15:00,
2013-04-16 22:20:00,51.0,46.0,30.11,NE,35,0.0,6.0,83,0.01,,,0.06,VWS V14.01,2013-04-17 03:20:00,
2013-04-16 22:25:00,51.1,46.1,30.11,East,83,3.0,11.0,83,0.01,,,0.06,VWS V14.01,2013-04-17 03:25:00,
2013-04-16 22:30:00,51.1,46.1,30.10,ENE,63,3.0,11.0,83,0.01,,,0.06,VWS V14.01,2013-04-17 03:30:00,
2013-04-16 22:35:00,51.2,46.2,30.10,NE,41,5.0,9.0,83,0.01,,-RA,0.06,VWS V14.01,2013-04-17 03:35:00,
2013-04-16 22:40:00,51.2,46.2,30.09,NNE,31,2.0,9.0,83,0.01,,-RA,0.06,VWS V14.01,2013-04-17 03:40:00,
2013-04-16 22:45:00,51.4,46.4,30.10,NNW,348,0.0,4.0,83,0.01,,-RA,0.06,VWS V14.01,2013-04-17 03:45:00,
2013-04-16 22:50:00,51.5,46.5,30.10,ENE,78,0.0,5.0,83,0.01,,-RA,0.06,VWS V14.01,2013-04-17 03:50:00,
2013-04-16 22:55:00,51.6,46.6,30.11,ENE,77,0.0,3.0,83,0.01,,,0.06,VWS V14.01,2013-04-17 03:55:00,
2013-04-16 23:00:00,51.5,46.5,30.10,NE,34,4.0,7.0,83,0.01,,,0.06,VWS V14.01,2013-04-17 04:00:00,
2013-04-16 23:01:00,51.5,46.5,30.10,NE,49,2.0,7.0,83,0.01,,,0.06,VWS V14.01,2013-04-17 04:01:00,
2013-04-16 23:10:00,51.6,46.6,30.10,NNE,22,0.0,5.0,83,0.01,,,0.06,VWS V14.01,2013-04-17 04:10:00,
2013-04-16 23:15:00,51.6,46.6,30.11,NNE,22,0.0,1.0,83,0.01,,,0.06,VWS V14.01,2013-04-17 04:15:00,
2013-04-16 23:20:00,51.7,46.7,30.09,North,355,0.0,8.0,83,0.01,,,0.06,VWS V14.01,2013-04-17 04:20:00,
2013-04-16 23:25:00,51.7,46.7,30.10,North,355,1.0,4.0,83,0.00,,,0.06,VWS V14.01,2013-04-17 04:25:00,
2013-04-16 23:30:00,51.7,46.7,30.10,NE,51,6.0,6.0,83,0.00,,,0.06,VWS V14.01,2013-04-17 04:30:00,
2013-04-16 23:35:00,51.7,46.7,30.10,NNE,26,1.0,7.0,83,0.00,,-RA,0.06,VWS V14.01,2013-04-17 04:35:00,
2013-04-16 23:40:00,51.7,46.7,30.10,ENE,58,0.0,7.0,83,0.00,,-RA,0.06,VWS V14.01,2013-04-17 04:40:00,
2013-04-16 23:45:00,51.7,46.7,30.09,ENE,57,0.0,2.0,83,0.00,,,0.06,VWS V14.01,2013-04-17 04:45:00,
2013-04-16 23:50:00,51.7,46.7,30.10,NNE,24,3.0,5.0,83,0.00,,,0.06,VWS V14.01,2013-04-17 04:50:00,
2013-04-16 23:55:00,51.6,46.6,30.10,ENE,74,0.0,7.0,83,0.00,,OVC024,0.06,VWS V14.01,2013-04-17 04:55:00,